Regional Weather Roundup
Issued by NWS Binghamton, NY

Home | Current Version | Previous Version | Text Only | Print | Product List | Glossary On
Versions: 1 2 3 4 5 6 7 8 9 10 11 12 13 14 15 16 17 18 19 20 21 22 23 24 25 26 27
000
ASUS41 KBGM 251710
RWRBGM

REGIONAL WEATHER ROUNDUP
NATIONAL WEATHER SERVICE BINGHAMTON NY
100 PM EDT TUE APR 25 2017

Note: "fair" indicates few or no clouds below 12,000 feet with no
significant weather and/or obstructions to visibility.

* = Station(s) that does not report precipitation, such as rain,
snow, etc, also no thunder or fog.

NYZ009-015>018-022>025-036-037-044>046-055>057-062-251800
...Central New York...

CITY           SKY/WX    TMP DP  RH WIND       PRES   REMARKS
Binghamton     CLOUDY    51  46  83 SE13      30.05F
Dansville      CLOUDY    59  49  69 E9        29.99F
Elmira         CLOUDY    58  47  66 SE9       30.02F
Seneca Falls   CLOUDY    59  52  77 S12       30.04F
Ithaca         CLOUDY    57  48  72 SE10G18   30.04F
Hamilton       CLOUDY    52  45  76 SE8       30.09F
Monticello     CLOUDY    46  46 100 E21G26    30.09F
Norwich        CLOUDY    54  45  71 E6        30.09F
Penn Yan       CLOUDY    58  47  66 SE8       30.02F
Rome           LGT RAIN  51  46  83 E15G25    30.13F
Sidney         CLOUDY    55  50  82 SE8       30.07F
Syracuse       LGT RAIN  51  47  86 E14       30.06F
$$

PAZ038>040-043-044-047-048-072-251800
...Northeast Pennsylvania...

CITY           SKY/WX    TMP DP  RH WIND       PRES   REMARKS
Scranton       CLOUDY    55  48  77 NE13G21   30.02F
$$
&&
KEY
WCI = Wind Chill Index
VSB = Visibility
HX  = Heat Index
$$




USA.gov is the U.S. government's official web portal to all federal, state and local government web resources and services.